Location: *
(58.7167°N, 26.1833°E)
Time: 15:04:16
(UTC+00:00)

Cosmos 839 Rocket - Pass Details

Date: 25 August 2019
Orbit: 968 x 2084 km, 65.9° (Epoch: 22 October)

Event Time Altitude Azimuth Distance (km) Brightness Sun altitude
Rises 19:56:02 0° 229° (SW) 4,560 7.4 -15.0°
Reaches altitude 10° 19:59:13 10° 230° (SW) 3,423 6.8 -15.2°
Maximum altitude 20:07:16 88° 319° (NW) 1,158 4.4 -15.8°
Drops below altitude 10° 20:13:51 10° 52° (NE) 2,827 6.5 -16.3°
Sets 20:16:15 0° 53° (NE) 3,724 7.1 -16.4°
